THAICOM 4 (28786 NORAD) Tracking and Keplerian Element Data

This shows tracking and keplerian element data for the satellite.

Feedback or suggestion? Click here.




ElementValue
Catalog28786
NameTHAICOM 4
Epoch Orbit5045
Epoch Day354.2181661
Epoch Year2025
RAAN85.4372
Inclination0.0773
Eccentricity0.0001813
Argument of Perigee185.0996
Mean Anonmoly16.5255
Mean Motion1.00270087
Decay Rate-3.38E-06
L11 28786U 05028A 25354.21816610 -.00000338 00000+0 00000+0 0 9993
L22 28786 0.0773 85.4372 0001813 185.0996 16.5255 1.00270087 50453



Live tracking and technical data element details for THAICOM 4 (NORAD 28786). THAICOM 4 can be tracked NOW for your location showing map with azimuth and elevation plus other details from your city location.







IsCatalogInMostPopularTable: catalog: 28786, numindb: 482
Update: records affected: 1



GetName: 28786 THAICOM 4

Hit Count: updated at: Mon, 18 May 2026 09:12:57 GMT